This is the latest recevied weather packets stored in our database for station/object SQ7IQO. If no packets are shown the sender has not sent any weather packets the latest 10 day(s).
| Time | Temp. | Humidity | Pressure | Rain* | Wind** | Luminosity | Snow |
|---|---|---|---|---|---|---|---|
| 1787726137 | 18.89° C | 67% | 1023.6 hPa | 0 mm | 0 m/s | - | - |
| 1787726077 | 18.33° C | 71% | 1023.6 hPa | 0 mm | 0 m/s | - | - |
| 1787726018 | 17.78° C | 71% | 1023.6 hPa | 0 mm | 0 m/s | - | - |
| 1787725958 | 17.78° C | 70% | 1023.6 hPa | 0 mm | 0 m/s | - | - |
| 1787725898 | 17.78° C | 71% | 1023.6 hPa | 0 mm | 0 m/s | - | - |
| 1787725837 | 17.22° C | 74% | 1023.6 hPa | 0 mm | 0 m/s | - | - |
| 1787725777 | 16.67° C | 74% | 1023.6 hPa | 0 mm | 0 m/s | - | - |
| 1787725718 | 16.67° C | 75% | 1023.5 hPa | 0 mm | 0 m/s | - | - |
| 1787725658 | 16.11° C | 73% | 1023.6 hPa | 0 mm | 0 m/s | - | - |
| 1787725597 | 16.67° C | 71% | 1023.6 hPa | 0 mm | 0.45 m/s, ° | - | - |
| 1787725538 | 16.67° C | 71% | 1023.5 hPa | 0 mm | 0.45 m/s, ° | - | - |
| 1787725477 | 17.22° C | 73% | 1023.6 hPa | 0 mm | 0 m/s | - | - |
| 1787725418 | 17.22° C | 73% | 1023.5 hPa | 0 mm | 0 m/s | - | - |
| 1787725357 | 16.67° C | 73% | 1023.5 hPa | 0 mm | 0 m/s | - | - |
| 1787725298 | 16.67° C | 74% | 1023.5 hPa | 0 mm | 0 m/s | - | - |
| 1787725238 | 16.67° C | 76% | 1023.5 hPa | 0 mm | 0 m/s | - | - |
| 1787725177 | 16.11° C | 76% | 1023.5 hPa | 0 mm | 0 m/s | - | - |
| 1787725118 | 16.11° C | 77% | 1023.5 hPa | 0 mm | 0 m/s | - | - |
| 1787725058 | 16.11° C | 77% | 1023.5 hPa | 0 mm | 0 m/s | - | - |
| 1787724998 | 16.11° C | 76% | 1023.5 hPa | 0 mm | 0 m/s | - | - |
| 1787724938 | 16.11° C | 77% | 1023.5 hPa | 0 mm | 0 m/s | - | - |
| 1787724878 | 15.56° C | 76% | 1023.5 hPa | 0 mm | 0 m/s | - | - |
| 1787724818 | 15.56° C | 77% | 1023.5 hPa | 0 mm | 0 m/s | - | - |
| 1787724757 | 15.56° C | 78% | 1023.5 hPa | 0 mm | 0 m/s | - | - |
| 1787724697 | 15.56° C | 76% | 1023.5 hPa | 0 mm | 0 m/s | - | - |
* Rain latest hour (hover to see other rain measurements)
** Current wind speed in m/s (hover to see current wind gust speed)